"Period start","avg(HW err(1)/warn(2) (#))","avg(Visibility (m))","avg(Weather code (#))","avg(Precip intensity (mm/h))","min(HW err(1)/warn(2) (#))","max(HW err(1)/warn(2) (#))","std(HW err(1)/warn(2) (#))","med(HW err(1)/warn(2) (#))","min(Visibility (m))","max(Visibility (m))","std(Visibility (m))","med(Visibility (m))","min(Weather code (#))","max(Weather code (#))","std(Weather code (#))","med(Weather code (#))","min(Precip intensity (mm/h))","max(Precip intensity (mm/h))","std(Precip intensity (mm/h))","med(Precip intensity (mm/h))"
2017-10-10 00:00:00,2,48887,0,0.00,2,2,0,2,41362,50000,2676,50000,0,0,0,0,0.00,0.00,0.00,0.00
2017-10-10 00:10:00,2,49909,0,0.00,2,2,0,2,49086,50000,274,50000,0,0,0,0,0.00,0.00,0.00,0.00
2017-10-10 00:20:00,2,49920,0,0.00,2,2,0,2,49517,50000,165,50000,0,0,0,0,0.00,0.00,0.00,0.00
2017-10-10 00:30:00,2,49421,0,0.00,2,2,0,2,47346,50000,960,50000,0,0,0,0,0.00,0.00,0.00,0.00
2017-10-10 00:40:00,2,50000,0,0.00,2,2,0,2,50000,50000,0,50000,0,0,0,0,0.00,0.00,0.00,0.00
2017-10-10 00:50:00,2,49169,0,0.00,2,2,0,2,45676,50000,1408,50000,0,0,0,0,0.00,0.00,0.00,0.00
2017-10-10 01:00:00,2,49344,0,0.00,2,2,0,2,46248,50000,1330,50000,0,0,0,0,0.00,0.00,0.00,0.00
2017-10-10 01:10:00,2,49437,0,0.00,2,2,0,2,47122,50000,1127,50000,0,0,0,0,0.00,0.00,0.00,0.00
2017-10-10 01:20:00,2,49849,0,0.00,2,2,0,2,49131,50000,277,50000,0,0,0,0,0.00,0.00,0.00,0.00
2017-10-10 01:30:00,2,48964,0,0.00,2,2,0,2,44947,50000,1691,50000,0,0,0,0,0.00,0.00,0.00,0.00
2017-10-10 01:40:00,2,48464,0,0.00,2,2,0,2,41013,50000,2872,50000,0,0,0,0,0.00,0.00,0.00,0.00
2017-10-10 01:50:00,2,49956,0,0.00,2,2,0,2,49751,50000,89,50000,0,0,0,0,0.00,0.00,0.00,0.00
2017-10-10 02:00:00,2,49839,0,0.00,2,2,0,2,48386,50000,484,50000,0,0,0,0,0.00,0.00,0.00,0.00
2017-10-10 02:10:00,2,49964,0,0.00,2,2,0,2,49637,50000,109,50000,0,0,0,0,0.00,0.00,0.00,0.00
2017-10-10 02:20:00,2,48739,0,0.00,2,2,0,2,41871,50000,2567,50000,0,0,0,0,0.00,0.00,0.00,0.00
2017-10-10 02:30:00,2,50000,0,0.00,2,2,0,2,50000,50000,0,50000,0,0,0,0,0.00,0.00,0.00,0.00
2017-10-10 02:40:00,2,50000,0,0.00,2,2,0,2,50000,50000,0,50000,0,0,0,0,0.00,0.00,0.00,0.00
2017-10-10 02:50:00,2,49339,0,0.00,2,2,0,2,43392,50000,1982,50000,0,0,0,0,0.00,0.00,0.00,0.00
2017-10-10 03:00:00,2,49917,0,0.00,2,2,0,2,49166,50000,250,50000,0,0,0,0,0.00,0.00,0.00,0.00
2017-10-10 03:10:00,2,49942,0,0.00,2,2,0,2,49424,50000,173,50000,0,0,0,0,0.00,0.00,0.00,0.00
2017-10-10 03:20:00,2,50000,0,0.00,2,2,0,2,50000,50000,0,50000,0,0,0,0,0.00,0.00,0.00,0.00
2017-10-10 03:30:00,2,49000,0,0.00,2,2,0,2,45726,50000,1684,50000,0,0,0,0,0.00,0.00,0.00,0.00
2017-10-10 03:40:00,2,50000,0,0.00,2,2,0,2,50000,50000,0,50000,0,0,0,0,0.00,0.00,0.00,0.00
2017-10-10 03:50:00,2,49881,0,0.00,2,2,0,2,48828,50000,351,50000,0,0,0,0,0.00,0.00,0.00,0.00
2017-10-10 04:00:00,2,50000,0,0.00,2,2,0,2,50000,50000,0,50000,0,0,0,0,0.00,0.00,0.00,0.00
2017-10-10 04:10:00,2,50000,0,0.00,2,2,0,2,50000,50000,0,50000,0,0,0,0,0.00,0.00,0.00,0.00
2017-10-10 04:20:00,2,49853,0,0.00,2,2,0,2,48862,50000,345,50000,0,0,0,0,0.00,0.00,0.00,0.00
2017-10-10 04:30:00,2,50000,0,0.00,2,2,0,2,50000,50000,0,50000,0,0,0,0,0.00,0.00,0.00,0.00
2017-10-10 04:40:00,2,50000,0,0.00,2,2,0,2,50000,50000,0,50000,0,0,0,0,0.00,0.00,0.00,0.00
2017-10-10 04:50:00,2,49813,0,0.00,2,2,0,2,48126,50000,562,50000,0,0,0,0,0.00,0.00,0.00,0.00
2017-10-10 05:00:00,2,50000,0,0.00,2,2,0,2,50000,50000,0,50000,0,0,0,0,0.00,0.00,0.00,0.00
2017-10-10 05:10:00,2,40081,8,0.01,2,2,0,2,14936,50000,13095,50000,0,40,16,0,0.00,0.05,0.02,0.00
2017-10-10 05:20:00,2,15998,76,0.04,2,2,0,2,12549,20394,2355,15476,71,77,2,77,0.00,0.05,0.02,0.05
2017-10-10 05:30:00,2,29327,76,0.07,2,2,0,2,9179,43814,10982,29694,71,77,2,77,0.00,0.45,0.13,0.03
2017-10-10 05:40:00,2,8298,71,0.55,2,2,0,2,4763,13522,2415,7914,71,71,0,71,0.20,1.20,0.27,0.50
2017-10-10 05:50:00,2,15426,71,0.25,2,2,0,2,9369,20568,3076,15629,71,71,0,71,0.00,0.55,0.16,0.25
2017-10-10 06:00:00,2,10439,71,0.66,2,2,0,2,7318,15121,2905,9403,71,71,0,71,0.30,1.25,0.28,0.60
2017-10-10 06:10:00,2,14241,71,0.61,2,2,0,2,9205,30794,6028,12655,71,71,0,71,0.05,1.50,0.39,0.47
2017-10-10 06:20:00,2,17870,71,0.41,2,2,0,2,5305,31612,8614,18108,71,71,0,71,0.00,1.90,0.58,0.23
2017-10-10 06:30:00,2,31929,66,0.03,2,2,0,2,17532,45914,9467,32160,0,77,22,71,0.00,0.10,0.04,0.00
2017-10-10 06:40:00,2,28832,57,0.10,2,2,0,2,14757,50000,11721,27103,0,71,28,71,0.00,0.40,0.14,0.00
2017-10-10 06:50:00,2,12553,71,0.72,2,2,0,2,6424,24279,4774,11590,71,71,0,71,0.10,1.30,0.38,0.57
2017-10-10 07:00:00,2,7427,71,1.03,2,2,0,2,5573,9277,1375,7402,71,71,0,71,0.60,2.00,0.39,0.92
2017-10-10 07:10:00,2,4550,71,1.94,2,2,0,2,3879,5966,634,4302,71,71,0,71,0.90,2.35,0.40,2.02
2017-10-10 07:20:00,2,5945,71,1.39,2,2,0,2,3369,9226,2067,5406,71,71,0,71,0.30,2.05,0.54,1.55
2017-10-10 07:30:00,2,3399,71,3.17,2,2,0,2,2075,4644,882,3368,71,71,0,71,2.05,6.40,1.24,2.92
2017-10-10 07:40:00,2,3232,71,3.28,2,2,0,2,2152,3947,560,3145,71,71,0,71,2.30,5.45,0.91,3.05
2017-10-10 07:50:00,2,4233,71,2.94,2,2,0,2,2993,7994,1502,3507,71,71,0,71,1.35,3.80,0.75,3.30
2017-10-10 08:00:00,2,10299,71,0.75,2,2,0,2,5942,22340,4239,9531,71,71,0,71,0.05,1.30,0.34,0.78
2017-10-10 08:10:00,2,12208,71,0.56,2,2,0,2,8583,16482,2828,12544,71,71,0,71,0.15,0.90,0.26,0.53
2017-10-10 08:20:00,2,9190,71,1.02,2,2,0,2,6619,11865,1549,9094,71,71,0,71,0.20,1.65,0.49,1.10
2017-10-10 08:30:00,2,27511,71,0.18,2,2,0,2,9698,46789,12399,29490,71,71,0,71,0.00,0.95,0.30,0.05
2017-10-10 08:40:00,2,39839,64,0.01,2,2,0,2,25816,50000,8799,42652,0,77,22,71,0.00,0.15,0.05,0.00
2017-10-10 08:50:00,2,36086,51,0.03,2,2,0,2,25186,50000,7914,37648,0,77,33,71,0.00,0.10,0.04,0.00
2017-10-10 09:00:00,2,37767,59,0.02,2,2,0,2,20991,50000,10346,35576,0,77,29,71,0.00,0.05,0.02,0.00
2017-10-10 09:10:00,2,50000,0,0.00,2,2,0,2,50000,50000,0,50000,0,0,0,0,0.00,0.00,0.00,0.00
2017-10-10 09:20:00,2,49924,0,0.00,2,2,0,2,49236,50000,229,50000,0,0,0,0,0.00,0.00,0.00,0.00
2017-10-10 09:30:00,2,48396,0,0.00,2,2,0,2,44507,50000,1754,48885,0,0,0,0,0.00,0.00,0.00,0.00
2017-10-10 09:40:00,2,47468,0,0.00,2,2,0,2,40245,50000,3255,49586,0,0,0,0,0.00,0.00,0.00,0.00
2017-10-10 09:50:00,2,46918,0,0.00,2,2,0,2,37802,50000,4228,49334,0,0,0,0,0.00,0.00,0.00,0.00
2017-10-10 10:00:00,2,48648,20,0.00,2,2,0,2,44755,50000,1688,49220,0,41,20,20,0.00,0.00,0.00,0.00
2017-10-10 10:10:00,2,50000,0,0.00,2,2,0,2,50000,50000,0,50000,0,0,0,0,0.00,0.00,0.00,0.00
2017-10-10 10:20:00,2,49845,0,0.00,2,2,0,2,48448,50000,466,50000,0,0,0,0,0.00,0.00,0.00,0.00
2017-10-10 10:30:00,2,43680,4,0.00,2,2,0,2,30400,50000,7078,46700,0,40,12,0,0.00,0.00,0.00,0.00
2017-10-10 10:40:00,2,27826,64,0.01,2,2,0,2,21864,32836,3483,27971,41,77,15,71,0.00,0.05,0.02,0.00
2017-10-10 10:50:00,2,21161,73,0.03,2,2,0,2,18135,23813,1936,21150,71,77,3,71,0.00,0.15,0.05,0.00
2017-10-10 11:00:00,2,9972,72,0.31,2,2,0,2,6412,15241,2908,10254,71,77,2,71,0.05,0.70,0.20,0.28
2017-10-10 11:10:00,2,8978,71,0.45,2,2,0,2,6844,11437,1322,8794,71,71,0,71,0.15,0.95,0.25,0.40
2017-10-10 11:20:00,2,5812,71,1.11,2,2,0,2,4234,7749,1162,5608,71,71,0,71,0.35,1.75,0.43,1.05
2017-10-10 11:30:00,2,5248,71,0.44,2,2,0,2,3882,6887,1102,4903,71,71,0,71,0.10,0.85,0.27,0.38
2017-10-10 11:40:00,2,6631,73,0.12,2,2,0,2,5549,8558,831,6444,71,77,3,71,0.05,0.20,0.04,0.10
2017-10-10 11:50:00,2,6788,77,0.17,2,2,0,2,4750,9718,1730,6402,77,77,0,77,0.05,0.35,0.10,0.17
2017-10-10 12:00:00,2,5200,76,0.23,2,2,0,2,4658,5676,307,5158,71,77,2,77,0.10,0.40,0.11,0.23
2017-10-10 12:10:00,2,4261,71,0.59,2,2,0,2,3214,5106,588,4368,71,71,0,71,0.35,0.95,0.20,0.57
2017-10-10 12:20:00,2,1996,71,1.64,2,2,0,2,1327,3120,509,1900,71,71,0,71,0.95,2.20,0.39,1.68
2017-10-10 12:30:00,2,2369,71,2.75,2,2,0,2,2105,2607,137,2358,71,71,0,71,1.45,3.70,0.70,2.80
2017-10-10 12:40:00,2,2158,71,3.89,2,2,0,2,1875,2455,199,2164,71,71,0,71,3.10,4.75,0.46,3.90
2017-10-10 12:50:00,2,1828,71,4.29,2,2,0,2,1410,3437,560,1666,71,71,0,71,0.70,6.80,1.82,4.28
2017-10-10 13:00:00,2,6144,71,0.38,2,2,0,2,3691,7403,1198,6628,71,71,0,71,0.15,0.75,0.16,0.35
2017-10-10 13:10:00,2,12650,73,0.05,2,2,0,2,8746,23532,4154,11491,71,77,3,71,0.00,0.20,0.05,0.05
2017-10-10 13:20:00,2,46289,60,0.00,2,2,0,2,33582,50000,6312,50000,0,77,30,77,0.00,0.00,0.00,0.00
2017-10-10 13:30:00,2,50000,0,0.00,2,2,0,2,50000,50000,0,50000,0,0,0,0,0.00,0.00,0.00,0.00
2017-10-10 13:40:00,2,50000,0,0.00,2,2,0,2,50000,50000,0,50000,0,0,0,0,0.00,0.00,0.00,0.00
2017-10-10 13:50:00,2,50000,0,0.00,2,2,0,2,50000,50000,0,50000,0,0,0,0,0.00,0.00,0.00,0.00
2017-10-10 14:00:00,2,50000,0,0.00,2,2,0,2,50000,50000,0,50000,0,0,0,0,0.00,0.00,0.00,0.00
2017-10-10 14:10:00,2,50000,0,0.00,2,2,0,2,50000,50000,0,50000,0,0,0,0,0.00,0.00,0.00,0.00
2017-10-10 14:20:00,2,50000,0,0.00,2,2,0,2,50000,50000,0,50000,0,0,0,0,0.00,0.00,0.00,0.00
2017-10-10 14:30:00,2,50000,0,0.00,2,2,0,2,50000,50000,0,50000,0,0,0,0,0.00,0.00,0.00,0.00
2017-10-10 14:40:00,2,49487,0,0.00,2,2,0,2,46272,50000,1150,50000,0,0,0,0,0.00,0.00,0.00,0.00
2017-10-10 14:50:00,2,43843,0,0.00,2,2,0,2,32446,49315,4979,45265,0,0,0,0,0.00,0.00,0.00,0.00
2017-10-10 15:00:00,2,46656,0,0.00,2,2,0,2,28963,50000,6671,50000,0,0,0,0,0.00,0.00,0.00,0.00
2017-10-10 15:10:00,2,50000,0,0.00,2,2,0,2,50000,50000,0,50000,0,0,0,0,0.00,0.00,0.00,0.00
2017-10-10 15:20:00,2,50000,0,0.00,2,2,0,2,50000,50000,0,50000,0,0,0,0,0.00,0.00,0.00,0.00
2017-10-10 15:30:00,2,50000,0,0.00,2,2,0,2,50000,50000,0,50000,0,0,0,0,0.00,0.00,0.00,0.00
2017-10-10 15:40:00,2,50000,0,0.00,2,2,0,2,50000,50000,0,50000,0,0,0,0,0.00,0.00,0.00,0.00
2017-10-10 15:50:00,2,50000,0,0.00,2,2,0,2,50000,50000,0,50000,0,0,0,0,0.00,0.00,0.00,0.00
2017-10-10 16:00:00,2,50000,0,0.00,2,2,0,2,50000,50000,0,50000,0,0,0,0,0.00,0.00,0.00,0.00
2017-10-10 16:10:00,2,50000,0,0.00,2,2,0,2,50000,50000,0,50000,0,0,0,0,0.00,0.00,0.00,0.00
2017-10-10 16:20:00,2,50000,0,0.00,2,2,0,2,50000,50000,0,50000,0,0,0,0,0.00,0.00,0.00,0.00
2017-10-10 16:30:00,2,50000,0,0.00,2,2,0,2,50000,50000,0,50000,0,0,0,0,0.00,0.00,0.00,0.00
2017-10-10 16:40:00,2,50000,0,0.00,2,2,0,2,50000,50000,0,50000,0,0,0,0,0.00,0.00,0.00,0.00
2017-10-10 16:50:00,2,50000,0,0.00,2,2,0,2,50000,50000,0,50000,0,0,0,0,0.00,0.00,0.00,0.00
2017-10-10 17:00:00,2,50000,0,0.00,2,2,0,2,50000,50000,0,50000,0,0,0,0,0.00,0.00,0.00,0.00
2017-10-10 17:10:00,2,50000,0,0.00,2,2,0,2,50000,50000,0,50000,0,0,0,0,0.00,0.00,0.00,0.00
2017-10-10 17:20:00,2,50000,0,0.00,2,2,0,2,50000,50000,0,50000,0,0,0,0,0.00,0.00,0.00,0.00
2017-10-10 17:30:00,2,50000,0,0.00,2,2,0,2,50000,50000,0,50000,0,0,0,0,0.00,0.00,0.00,0.00
2017-10-10 17:40:00,2,50000,0,0.00,2,2,0,2,50000,50000,0,50000,0,0,0,0,0.00,0.00,0.00,0.00
2017-10-10 17:50:00,2,50000,0,0.00,2,2,0,2,50000,50000,0,50000,0,0,0,0,0.00,0.00,0.00,0.00
2017-10-10 18:00:00,2,49902,0,0.00,2,2,0,2,49017,50000,295,50000,0,0,0,0,0.00,0.00,0.00,0.00
2017-10-10 18:10:00,2,50000,0,0.00,2,2,0,2,50000,50000,0,50000,0,0,0,0,0.00,0.00,0.00,0.00
2017-10-10 18:20:00,2,50000,0,0.00,2,2,0,2,50000,50000,0,50000,0,0,0,0,0.00,0.00,0.00,0.00
2017-10-10 18:30:00,2,50000,0,0.00,2,2,0,2,50000,50000,0,50000,0,0,0,0,0.00,0.00,0.00,0.00
2017-10-10 18:40:00,2,50000,0,0.00,2,2,0,2,50000,50000,0,50000,0,0,0,0,0.00,0.00,0.00,0.00
2017-10-10 18:50:00,2,50000,0,0.00,2,2,0,2,50000,50000,0,50000,0,0,0,0,0.00,0.00,0.00,0.00
2017-10-10 19:00:00,2,50000,0,0.00,2,2,0,2,50000,50000,0,50000,0,0,0,0,0.00,0.00,0.00,0.00
2017-10-10 19:10:00,2,50000,0,0.00,2,2,0,2,50000,50000,0,50000,0,0,0,0,0.00,0.00,0.00,0.00
2017-10-10 19:20:00,2,50000,0,0.00,2,2,0,2,50000,50000,0,50000,0,0,0,0,0.00,0.00,0.00,0.00
2017-10-10 19:30:00,2,50000,0,0.00,2,2,0,2,50000,50000,0,50000,0,0,0,0,0.00,0.00,0.00,0.00
2017-10-10 19:40:00,2,50000,0,0.00,2,2,0,2,50000,50000,0,50000,0,0,0,0,0.00,0.00,0.00,0.00
2017-10-10 19:50:00,2,50000,0,0.00,2,2,0,2,50000,50000,0,50000,0,0,0,0,0.00,0.00,0.00,0.00
2017-10-10 20:00:00,2,50000,0,0.00,2,2,0,2,50000,50000,0,50000,0,0,0,0,0.00,0.00,0.00,0.00
2017-10-10 20:10:00,2,50000,0,0.00,2,2,0,2,50000,50000,0,50000,0,0,0,0,0.00,0.00,0.00,0.00
2017-10-10 20:20:00,2,50000,0,0.00,2,2,0,2,50000,50000,0,50000,0,0,0,0,0.00,0.00,0.00,0.00
2017-10-10 20:30:00,2,49974,0,0.00,2,2,0,2,49715,50000,82,50000,0,0,0,0,0.00,0.00,0.00,0.00
2017-10-10 20:40:00,2,50000,0,0.00,2,2,0,2,50000,50000,0,50000,0,0,0,0,0.00,0.00,0.00,0.00
2017-10-10 20:50:00,2,50000,0,0.00,2,2,0,2,50000,50000,0,50000,0,0,0,0,0.00,0.00,0.00,0.00
2017-10-10 21:00:00,2,50000,0,0.00,2,2,0,2,50000,50000,0,50000,0,0,0,0,0.00,0.00,0.00,0.00
2017-10-10 21:10:00,2,50000,0,0.00,2,2,0,2,50000,50000,0,50000,0,0,0,0,0.00,0.00,0.00,0.00
2017-10-10 21:20:00,2,50000,0,0.00,2,2,0,2,50000,50000,0,50000,0,0,0,0,0.00,0.00,0.00,0.00
2017-10-10 21:30:00,2,50000,0,0.00,2,2,0,2,50000,50000,0,50000,0,0,0,0,0.00,0.00,0.00,0.00
2017-10-10 21:40:00,2,50000,0,0.00,2,2,0,2,50000,50000,0,50000,0,0,0,0,0.00,0.00,0.00,0.00
2017-10-10 21:50:00,2,50000,0,0.00,2,2,0,2,50000,50000,0,50000,0,0,0,0,0.00,0.00,0.00,0.00
2017-10-10 22:00:00,2,50000,0,0.00,2,2,0,2,50000,50000,0,50000,0,0,0,0,0.00,0.00,0.00,0.00
2017-10-10 22:10:00,2,50000,0,0.00,2,2,0,2,50000,50000,0,50000,0,0,0,0,0.00,0.00,0.00,0.00
2017-10-10 22:20:00,2,50000,0,0.00,2,2,0,2,50000,50000,0,50000,0,0,0,0,0.00,0.00,0.00,0.00
2017-10-10 22:30:00,2,50000,0,0.00,2,2,0,2,50000,50000,0,50000,0,0,0,0,0.00,0.00,0.00,0.00
2017-10-10 22:40:00,2,50000,0,0.00,2,2,0,2,50000,50000,0,50000,0,0,0,0,0.00,0.00,0.00,0.00
2017-10-10 22:50:00,2,50000,0,0.00,2,2,0,2,50000,50000,0,50000,0,0,0,0,0.00,0.00,0.00,0.00
2017-10-10 23:00:00,2,50000,0,0.00,2,2,0,2,50000,50000,0,50000,0,0,0,0,0.00,0.00,0.00,0.00
2017-10-10 23:10:00,2,50000,0,0.00,2,2,0,2,50000,50000,0,50000,0,0,0,0,0.00,0.00,0.00,0.00
2017-10-10 23:20:00,2,50000,0,0.00,2,2,0,2,50000,50000,0,50000,0,0,0,0,0.00,0.00,0.00,0.00
2017-10-10 23:30:00,2,50000,0,0.00,2,2,0,2,50000,50000,0,50000,0,0,0,0,0.00,0.00,0.00,0.00
2017-10-10 23:40:00,2,50000,0,0.00,2,2,0,2,50000,50000,0,50000,0,0,0,0,0.00,0.00,0.00,0.00
2017-10-10 23:50:00,2,50000,0,0.00,2,2,0,2,50000,50000,0,50000,0,0,0,0,0.00,0.00,0.00,0.00
